Tracking 29065 objects as of 22-Jul-2024
HD Live streaming from Space Station
objects crossing your sky now

COSMOS 1275 DEB

Track COSMOS 1275 DEB now!
10-day predictions


NORAD ID: 12663
Int'l Code: 1981-053T
Perigee: 912.1 km
Apogee: 985.4 km
Inclination: 83.0 °
Period: 103.9 minutes
Semi major axis: 7319 km
RCS: 0.0867 m2 (small)
Launch date: June 4, 1981
Source: Commonwealth of Independent States (former USSR) (CIS)
Launch site: PLESETSK MISSILE AND SPACE COMPLEX (PKMTR)

Note: This is SATELLITE DEBRIS
Your satellite tracking list
Your tracking list is empty




NASA's NSSDC Master Catalog

Two Line Element Set (TLE):
1 12663U 81053T   24204.38732865  .00001304  00000-0  11046-2 0  9991
2 12663  82.9551 325.3590 0050081 344.4224  80.0738 13.86297175162873
Source of the keplerian elements: AFSPC